スペースウォッチ-パンスターズ彗星

P/2011 UA134 ( Spacewatch-PanSTARRS )

English version
Home page
Updated on February 1, 2012

---------------------------------------------------------------------

・ プロフィール

発見日 2011年10月24日、25日
発見光度 20.4等、21.4等
発見者 Spacewatch project, Pan-STARRS 1 telescope (Haleakala)

・ 写真集

・ 軌道要素

Epoch 2011 Dec. 25.0 TT = JDT 2455920.5
T 2011 Dec. 7.19837 TT                                  MPC
q   2.0514143            (2000.0)            P               Q
n   0.07471464     Peri.   32.32569     +0.29887998     -0.94682782
a   5.5829736      Node    40.63631     +0.83203151     +0.19742621
e   0.6325588      Incl.   10.53855     +0.46732678     +0.25404718
P  13.2
From 119 observations 2011 Oct. 24-2012 Jan. 26, mean residual 0".5.

・ 光度変化

        m1 = -139 + 5 logΔ + 500 log r(t + 8)

---------------------------------------------------------------------

軌道要素はM.P.E.C. 2012-B78に掲載されたものです。
光度グラフはComet for Windowsで作成したものです。

---------------------------------------------------------------------

Copyright(C) Seiichi Yoshida (comet@aerith.net). All rights reserved.